| time (UTC) | temp F | wind direction | speed MPH | gust MPH | rain 1hr in | rain 24hr in | rain mn in | humidity % | barometer mb |
| 20260504170704 | 69 | 177 | 2.0 | 7.0 | 0.00 | 0.00 | 0.00 | 59 | 1010.8 |
| 20260504150705 | 60 | 267 | 1.0 | 2.0 | 0.00 | 0.00 | 0.00 | 75 | 1010.2 |
| 20260504150204 | 60 | 267 | 1.0 | 2.0 | 0.00 | 0.00 | 0.00 | 75 | 1010.2 |
| 20260504140704 | 58 | 71 | 0.0 | 0.0 | 0.00 | 0.00 | 0.00 | 75 | 1009.8 |
| 20260504130704 | 55 | 71 | 0.0 | 0.0 | 0.00 | 0.00 | 0.00 | 78 | 1009.3 |
| 20260504130204 | 55 | 71 | 0.0 | 0.0 | 0.00 | 0.00 | 0.00 | 78 | 1009.2 |
| 20260504110704 | 57 | 71 | 0.0 | 0.0 | 0.00 | 0.00 | 0.00 | 75 | 1009.1 |
| 20260504110204 | 57 | 71 | 0.0 | 2.0 | 0.00 | 0.00 | 0.00 | 75 | 1009.1 |
| 20260504100204 | 58 | 98 | 0.0 | 0.0 | 0.00 | 0.00 | 0.00 | 75 | 1009.0 |
| 20260504080704 | 62 | 66 | 0.0 | 0.0 | 0.00 | 0.00 | 0.00 | 68 | 1008.9 |
| 20260504080204 | 63 | 66 | 0.0 | 1.0 | 0.00 | 0.00 | 0.00 | 67 | 1009.0 |
| 20260504070205 | 64 | 66 | 0.0 | 2.0 | 0.00 | 0.00 | 0.00 | 62 | 1009.0 |
| 20260504050704 | 69 | 24 | 1.0 | 3.0 | 0.00 | 0.00 | 0.00 | 57 | 1008.9 |
| 20260504050204 | 69 | 23 | 1.0 | 3.0 | 0.00 | 0.00 | 0.00 | 58 | 1009.0 |
| 20260504043704 | 71 | 33 | 1.0 | 3.0 | 0.00 | 0.00 | 0.00 | 55 | 1009.0 |
| 20260504043204 | 71 | 14 | 1.0 | 3.0 | 0.00 | 0.00 | 0.00 | 55 | 1008.9 |
| 20260504040703 | 71 | 22 | 2.0 | 3.0 | 0.00 | 0.00 | 0.00 | 54 | 1008.8 |
| 20260504040204 | 71 | 318 | 1.0 | 5.0 | 0.00 | 0.00 | 0.00 | 54 | 1008.8 |
| 20260504033204 | 74 | 356 | 2.0 | 7.0 | 0.00 | 0.00 | 0.00 | 49 | 1008.6 |
| 20260504030704 | 76 | 322 | 2.0 | 3.0 | 0.00 | 0.00 | 0.00 | 46 | 1008.6 |
| 20260504030204 | 76 | 341 | 2.0 | 8.0 | 0.00 | 0.00 | 0.00 | 44 | 1008.6 |
| 20260504023706 | 78 | 326 | 3.0 | 8.0 | 0.00 | 0.00 | 0.00 | 41 | 1008.5 |
| 20260504023204 | 79 | 326 | 1.0 | 9.0 | 0.00 | 0.00 | 0.00 | 40 | 1008.6 |
| 20260504020704 | 80 | 10 | 3.0 | 8.0 | 0.00 | 0.00 | 0.00 | 39 | 1008.5 |
| 20260504020204 | 81 | 9 | 3.0 | 9.0 | 0.00 | 0.00 | 0.00 | 39 | 1008.6 |
| 20260504013705 | 83 | 317 | 4.0 | 9.0 | 0.00 | 0.00 | 0.00 | 40 | 1008.7 |
| 20260504013204 | 83 | 330 | 3.0 | 9.0 | 0.00 | 0.00 | 0.00 | 39 | 1008.7 |
| 20260504010704 | 85 | 282 | 3.0 | 9.0 | 0.00 | 0.00 | 0.00 | 36 | 1008.8 |
| 20260504010204 | 85 | 304 | 2.0 | 8.0 | 0.00 | 0.00 | 0.00 | 38 | 1008.9 |
| 20260504003704 | 85 | 8 | 2.0 | 7.0 | 0.00 | 0.00 | 0.00 | 38 | 1009.0 |
| 20260504000212 | 84 | 248 | 3.0 | 0.0 | 0.00 | 0.00 | 0.00 | 37 | 1009.4 |
| 20260504000205 | 84 | 341 | 3.0 | 12.0 | 0.00 | 0.00 | 0.00 | 37 | 1009.4 |
| 20260503233704 | 84 | 343 | 2.0 | 8.0 | 0.00 | 0.00 | 0.00 | 40 | 1009.6 |
| 20260503230704 | 85 | 342 | 4.0 | 8.0 | 0.00 | 0.00 | 0.00 | 38 | 1010.0 |
| 20260503230204 | 85 | 0 | 2.0 | 12.0 | 0.00 | 0.00 | 0.00 | 39 | 1010.1 |
| 20260503213704 | 84 | 342 | 3.0 | 7.0 | 0.00 | 0.00 | 0.00 | 40 | 1010.9 |
| 20260503210204 | 80 | 268 | 2.0 | 12.0 | 0.00 | 0.00 | 0.00 | 43 | 1011.3 |
| 20260503203704 | 79 | 294 | 3.0 | 10.0 | 0.00 | 0.00 | 0.00 | 44 | 1011.6 |
| 20260503203204 | 79 | 293 | 3.0 | 12.0 | 0.00 | 0.00 | 0.00 | 44 | 1011.7 |
| 20260503200704 | 79 | 346 | 4.0 | 9.0 | 0.00 | 0.00 | 0.00 | 47 | 1012.0 |
| 20260503200205 | 78 | 307 | 3.0 | 12.0 | 0.00 | 0.00 | 0.00 | 46 | 1012.0 |
| 20260503193704 | 77 | 324 | 4.0 | 8.0 | 0.00 | 0.00 | 0.00 | 47 | 1012.4 |
| 20260503190204 | 75 | 9 | 3.0 | 12.0 | 0.00 | 0.00 | 0.00 | 53 | 1012.9 |
| 20260503183705 | 74 | 20 | 3.0 | 8.0 | 0.00 | 0.00 | 0.00 | 56 | 1013.1 |
| 20260503183205 | 73 | 332 | 4.0 | 12.0 | 0.00 | 0.00 | 0.00 | 56 | 1013.2 |
| 20260503180705 | 71 | 318 | 3.0 | 8.0 | 0.00 | 0.00 | 0.00 | 58 | 1013.3 |
| 20260503173704 | 69 | 343 | 3.0 | 7.0 | 0.00 | 0.00 | 0.00 | 60 | 1013.4 |
| 20260503173204 | 69 | 320 | 2.0 | 9.0 | 0.00 | 0.00 | 0.00 | 61 | 1013.5 |